SPATO EPKK-EPWA

Flight info

Callsign SPATO
Flight time N/A
Altitude 4000
Route DCT EPWAT DCT EPWAX DCT EPWAR DCT EPWAW
Aircraft SR20/L-V/N

Departure

Time 2026-05-01 11:50
Airport Kraków John Paul II International Airport (EPKK)

Arrival

Time N/A
Airport Warsaw Chopin Airport (EPWA)
Time Latitude Longitude Altitude Speed Heading
2026-05-01 11:39 50.07481 19.80215 796 ft 0 kts 167°
2026-05-01 11:42 50.07480 19.80215 796 ft 0 kts 174°
2026-05-01 11:42 50.07475 19.80216 796 ft 0 kts 170°
2026-05-01 11:43 50.07473 19.80218 796 ft 0 kts 148°
2026-05-01 11:44 50.07470 19.80220 795 ft 0 kts 177°
2026-05-01 11:45 50.07465 19.80221 795 ft 0 kts 167°
2026-05-01 11:45 50.07462 19.80222 795 ft 3 kts 170°
2026-05-01 11:45 50.07435 19.80244 795 ft 0 kts 112°
2026-05-01 11:46 50.07434 19.80260 795 ft 5 kts 87°
2026-05-01 11:46 50.07461 19.80361 796 ft 12 kts 26°
2026-05-01 11:46 50.07522 19.80388 796 ft 8 kts 27°
2026-05-01 11:47 50.07583 19.80418 795 ft 11 kts 359°
2026-05-01 11:47 50.07671 19.80393 796 ft 14 kts 347°
2026-05-01 11:47 50.07772 19.80360 796 ft 15 kts 347°
2026-05-01 11:47 50.07850 19.80333 796 ft 1 kts 338°
2026-05-01 11:48 50.07854 19.80332 796 ft 2 kts 349°
2026-05-01 11:49 50.07903 19.80312 796 ft 13 kts 349°
2026-05-01 11:49 50.08006 19.80275 796 ft 13 kts 325°
2026-05-01 11:49 50.07993 19.80079 796 ft 44 kts 259°
2026-05-01 11:49 50.07884 19.79308 860 ft 88 kts 260°
2026-05-01 11:50 50.07767 19.78373 1157 ft 89 kts 258°
2026-05-01 11:50 50.07661 19.77432 1463 ft 89 kts 257°
2026-05-01 11:50 50.07593 19.76475 1691 ft 96 kts 271°
2026-05-01 11:50 50.07666 19.75311 1860 ft 106 kts 283°
2026-05-01 11:51 50.08267 19.74592 1938 ft 130 kts
2026-05-01 11:51 50.08958 19.75469 2159 ft 139 kts 61°
2026-05-01 11:51 50.09372 19.76742 2429 ft 139 kts 61°
2026-05-01 11:51 50.09753 19.78201 2539 ft 149 kts 69°
2026-05-01 11:52 50.10048 19.79769 2725 ft 150 kts 59°
2026-05-01 11:52 50.10690 19.81037 2929 ft 147 kts 44°
2026-05-01 11:52 50.11350 19.82155 3202 ft 142 kts 38°
2026-05-01 11:52 50.12152 19.83073 3432 ft 139 kts 31°
2026-05-01 11:53 50.12854 19.84050 3685 ft 138 kts 41°
2026-05-01 11:53 50.13585 19.85084 3769 ft 146 kts 37°
2026-05-01 11:53 50.14340 19.86114 4037 ft 140 kts 37°
2026-05-01 11:53 50.15041 19.87099 4302 ft 135 kts 38°
2026-05-01 11:54 50.15832 19.87788 4571 ft 127 kts 18°
2026-05-01 11:54 50.16634 19.88239 4842 ft 122 kts 16°
2026-05-01 11:54 50.17430 19.88665 5118 ft 119 kts 15°
2026-05-01 11:54 50.18201 19.89070 5398 ft 115 kts 15°
2026-05-01 11:55 50.18942 19.89457 5674 ft 112 kts 15°
2026-05-01 11:55 50.19664 19.89834 5950 ft 108 kts 15°
2026-05-01 11:55 50.20377 19.90203 6225 ft 105 kts 14°
2026-05-01 11:55 50.21048 19.90553 6525 ft 99 kts 15°
2026-05-01 11:56 50.21625 19.90853 6962 ft 79 kts 14°
2026-05-01 11:56 50.22137 19.91115 7205 ft 78 kts 14°
2026-05-01 11:56 50.22663 19.91382 7420 ft 80 kts 15°
2026-05-01 11:56 50.23194 19.91656 7637 ft 81 kts 16°
2026-05-01 11:57 50.23725 19.91931 7874 ft 80 kts 17°
2026-05-01 11:57 50.24255 19.92206 8103 ft 80 kts 18°
2026-05-01 11:57 50.24775 19.92475 8326 ft 79 kts 18°
2026-05-01 11:57 50.25294 19.92745 8563 ft 78 kts 18°
2026-05-01 11:58 50.25802 19.93009 8790 ft 77 kts 19°
2026-05-01 11:58 50.26308 19.93273 9005 ft 77 kts 20°
2026-05-01 11:58 50.27313 19.93798 9422 ft 76 kts 20°
2026-05-01 11:59 50.27811 19.94057 9639 ft 75 kts 20°
2026-05-01 11:59 50.28302 19.94314 9831 ft 75 kts 20°
2026-05-01 11:59 50.28799 19.94574 10018 ft 76 kts 20°
2026-05-01 12:00 50.29816 19.95106 10322 ft 85 kts 20°
2026-05-01 12:00 50.30425 19.95428 10335 ft 100 kts 21°
2026-05-01 12:00 50.31923 19.96216 10326 ft 124 kts 21°
2026-05-01 12:01 50.32760 19.96655 10319 ft 130 kts 21°
2026-05-01 12:01 50.33629 19.97111 10311 ft 135 kts 21°
2026-05-01 12:01 50.34531 19.97584 10317 ft 137 kts 21°
2026-05-01 12:01 50.35440 19.98059 10317 ft 140 kts 21°
2026-05-01 12:02 50.36378 19.98550 10318 ft 141 kts 20°
2026-05-01 12:02 50.37313 19.99039 10317 ft 143 kts 20°
2026-05-01 12:02 50.38262 19.99535 10315 ft 144 kts 20°